This is the latest recevied weather packets stored in our database for station/object KN6WGU. If no packets are shown the sender has not sent any weather packets the latest 10 day(s).
| Time | Temp. | Humidity | Pressure | Rain* | Wind** | Luminosity | Snow |
|---|---|---|---|---|---|---|---|
| 1778173637 | 12.78° C | 62% | 1006.2 hPa | 0 mm | - | 714 W/m² | - |
| 1778173334 | 12.22° C | 64% | 1006.5 hPa | 0 mm | - | 381 W/m² | - |
| 1778173029 | 12.22° C | 68% | 1006.5 hPa | 0 mm | - | 108 W/m² | - |
| 1778172726 | 12.22° C | 66% | 1006.4 hPa | 0 mm | - | 171 W/m² | - |
| 1778172422 | 12.22° C | 62% | 1006.2 hPa | 0 mm | - | 115 W/m² | - |
| 1778172119 | 12.22° C | 63% | 1006.3 hPa | 0 mm | - | 105 W/m² | - |
| 1778171816 | 11.67° C | 60% | 1006.3 hPa | 0 mm | - | 101 W/m² | - |
| 1778171514 | 12.22° C | 58% | 1006.2 hPa | 0 mm | - | 99 W/m² | - |
| 1778171209 | 12.22° C | 62% | 1006.2 hPa | 0 mm | - | 78 W/m² | - |
| 1778170906 | 12.22° C | 60% | 1006.2 hPa | 0 mm | - | 65 W/m² | - |
| 1778170602 | 12.22° C | 64% | 1006 hPa | 0 mm | - | 58 W/m² | - |
| 1778170299 | 12.22° C | 60% | 1006.2 hPa | 0 mm | - | 55 W/m² | - |
| 1778169995 | 12.22° C | 60% | 1006.3 hPa | 0 mm | - | 54 W/m² | - |
| 1778169692 | 11.67° C | 64% | 1006.3 hPa | 0 mm | - | 54 W/m² | - |
| 1778169388 | 11.67° C | 62% | 1006.3 hPa | 0 mm | - | 53 W/m² | - |
| 1778169084 | 11.67° C | 63% | 1006.4 hPa | 0 mm | - | 56 W/m² | - |
| 1778168781 | 11.67° C | 62% | 1006.4 hPa | 0 mm | - | 53 W/m² | - |
| 1778168479 | 11.67° C | 61% | 1006.4 hPa | 0 mm | - | 53 W/m² | - |
| 1778168175 | 12.22° C | 63% | 1006.5 hPa | 0 mm | - | 53 W/m² | - |
| 1778167872 | 11.67° C | 66% | 1006.4 hPa | 0 mm | - | 62 W/m² | - |
| 1778167568 | 11.67° C | 65% | 1006.5 hPa | 0 mm | - | 56 W/m² | - |
| 1778167264 | 11.67° C | 63% | 1006.5 hPa | 0 mm | - | 53 W/m² | - |
| 1778166960 | 11.67° C | 67% | 1006.6 hPa | 0 mm | - | 54 W/m² | - |
| 1778166657 | 11.67° C | 68% | 1006.5 hPa | 0 mm | - | 53 W/m² | - |
| 1778166354 | 11.11° C | 67% | 1006.5 hPa | 0 mm | - | 53 W/m² | - |
* Rain latest hour (hover to see other rain measurements)
** Current wind speed in m/s (hover to see current wind gust speed)